McGuire AFB, NJ

9:56 AM EDT on July 25, 2017 (GMT -0400)
McGuire Air Force Base

Weather History for KWRI - September, 2013

Change the Weather History Date:

Friday, September 6, 2013

  Actual Average Record
Temperature  
Mean Temperature 60 °F -  
Max Temperature 72 °F 79 °F 91 °F (2014)
Min Temperature 49 °F 59 °F 48 °F (2000)
Degree Days  
Heating Degree Days 5    
Growing Degree Days 10 (Base 50)    
Moisture  
Dew Point 45 °F    
Average Humidity 60    
Maximum Humidity 86    
Minimum Humidity 29    
Precipitation  
Precipitation 0.00 in - - ()
Sea Level Pressure  
Sea Level Pressure 30.19 in    
Wind  
Wind Speed 6 mph (NNW)    
Max Wind Speed 9 mph    
Max Gust Speed -    
Visibility 10 miles    
Events      
Averages and records for this station are not official NWS values.
T = Trace of Precipitation, MM = Missing Value Source: NWS Daily Summary

Daily Weather History Graph

Daily Weather History Graph

Search for Another Location

Airport or City:

Trip Planner

Search our weather history database for the weather conditions in past years. The results will help you decide how hot, cold, wet, or windy it might be!

Date:

Astronomy

Sep. 06, 2013 Rise Set
Actual Time 6:31 AM EDT 7:21 PM EDT
Civil Twilight 6:03 AM EDT 7:48 PM EDT
Nautical Twilight 5:30 AM EDT 8:21 PM EDT
Astronomical Twilight 4:56 AM EDT 8:55 PM EDT
Moon 7:40 AM EDT (9/6) 7:44 PM EDT (9/6)
Length of Visible Light 13h 45m
Length of Day
12h 50m
New Moon, 1% of the Moon is Illuminated
Sep 6
New Moon
Sep 12
First Quarter
Sep 19
Full
Sep 26
Last Quarter
Oct 4
New

Hourly Weather History & Observations

Time (EDT) Temp. Dew Point Humidity Pressure Visibility Wind Dir Wind Speed Gust Speed Precip Events Conditions
12:58 AM 56.5 °F 46.6 °F 69% 30.14 in 10.0 mi North 5.8 mph - N/A   Clear
1:58 AM 55.4 °F 47.7 °F 75% 30.17 in 10.0 mi North 8.1 mph - N/A   Clear
2:58 AM 55.4 °F 46.6 °F 72% 30.17 in 10.0 mi North 9.2 mph - N/A   Clear
3:58 AM 53.4 °F 45.7 °F 75% 30.18 in 10.0 mi NNW 8.1 mph - N/A   Clear
4:58 AM 51.1 °F 44.6 °F 78% 30.19 in 10.0 mi NNW 5.8 mph - N/A   Clear
5:58 AM 49.8 °F 45.0 °F 83% 30.19 in 10.0 mi NNW 6.9 mph - N/A   Clear
6:58 AM 50.2 °F 45.3 °F 83% 30.21 in 10.0 mi North 8.1 mph - N/A   Clear
7:58 AM 55.4 °F 45.7 °F 70% 30.23 in 10.0 mi North 8.1 mph - N/A   Clear
8:58 AM 59.7 °F 46.8 °F 62% 30.25 in 10.0 mi NNE 9.2 mph - N/A   Clear
9:58 AM 62.4 °F 48.0 °F 59% 30.25 in 10.0 mi North 6.9 mph - N/A   Clear
10:58 AM 65.5 °F 48.9 °F 55% 30.25 in 10.0 mi Variable 5.8 mph - N/A   Clear
11:58 AM 67.6 °F 48.0 °F 49% 30.24 in 10.0 mi Variable 2.3 mph - N/A   Clear
12:58 PM 69.8 °F 45.3 °F 41% 30.22 in 10.0 mi NNE 4.6 mph - N/A   Clear
1:58 PM 71.4 °F 43.2 °F 36% 30.21 in 10.0 mi West 5.8 mph - N/A   Partly Cloudy
2:58 PM 71.1 °F 40.1 °F 32% 30.19 in 10.0 mi NW 8.1 mph - N/A   Clear
3:58 PM 71.6 °F 38.5 °F 30% 30.17 in 10.0 mi Variable 3.5 mph - N/A   Clear
4:58 PM 71.6 °F 37.4 °F 29% 30.16 in 10.0 mi WSW 5.8 mph - N/A   Clear
5:58 PM 70.2 °F 39.7 °F 33% 30.15 in 10.0 mi West 6.9 mph - N/A   Clear
6:58 PM 66.6 °F 41.0 °F 39% 30.15 in 10.0 mi NW 3.5 mph - N/A   Clear
7:58 PM 59.0 °F 48.6 °F 68% 30.17 in 10.0 mi SE 5.8 mph - N/A   Clear
8:58 PM 58.1 °F 48.9 °F 71% 30.17 in 10.0 mi SSE 3.5 mph - N/A   Clear
9:58 PM 55.4 °F 47.5 °F 75% 30.16 in 10.0 mi South 3.5 mph - N/A   Clear
10:58 PM 55.9 °F 47.1 °F 72% 30.16 in 10.0 mi Variable 3.5 mph - N/A   Clear
11:58 PM 52.3 °F 48.4 °F 86% 30.14 in 10.0 mi Calm Calm - N/A   Clear